Regional Weather Roundup
Issued by NWS State College, PA

Home | Current Version | Previous Version | Graphics & Text | Print | Product List | Glossary On
Versions: 1 2 3 4 5 6 7 8 9 10 11 12 13 14 15 16 17 18 19 20 21 22 23 24 25 26 27 28 29 30 31 32 33 34 35 36 37 38 39 40 41 42 43 44 45 46 47 48 49 50
000
ASUS41 KCTP 260910
RWRCTP

REGIONAL WEATHER ROUNDUP
NATIONAL WEATHER SERVICE STATE COLLEGE PA
500 AM EDT THU MAR 26 2015

Note: "fair" indicates few or no clouds below 12,000 feet with no
significant weather and/or obstructions to visibility.

* = STATION THAT DOES NOT REPORT PRECIPITATION /E.G. RAIN...SNOW...ETC/
    THUNDER OR FOG.

PAZ002>004-007>009-013>016-020>023-029>032-261000-
WESTERN PENNSYLVANIA

CITY           SKY/WX    TMP DP  RH WIND       PRES   REMARKS
ERIE           CLOUDY    38  36  92 W5        29.93F FOG
MEADVILLE      CLOUDY    42  39  89 N6        29.87F FOG
FRANKLIN*      CLOUDY    34  28  80 E6        29.91F VSB 1
NEW CASTLE     PTSUNNY   37  37 100 CALM      29.92F FOG
BEAVER COUNTY  NOT AVBL
BUTLER*        CLOUDY    37  37 100 N3        29.93F
PITTSBURGH INT LGT RAIN  45  43  93 CALM      29.90F
PITTSBURGH     MOCLDY    48  42  80 N5        29.89F
INDIANA*       CLOUDY    37  37 100 CALM      29.95F FOG
LATROBE        MOCLDY    43  43 100 CALM      29.91F FOG
WASHINGTON CO* MOCLDY    43  41  93 E5        29.91F
$$

PAZ004>006-010>012-017>019-024>028-033>037-041-042-045-046-049>053-261000-
CENTRAL PENNSYLVANIA

CITY           SKY/WX    TMP DP  RH WIND       PRES   REMARKS
BRADFORD       CLOUDY    36  35  96 NW3       29.91F FOG
DUBOIS         PTCLDY    36  33  89 E5        29.92F FOG
CLEARFIELD     FOG       29  28  96 N6        29.94F VSB 1
JOHNSTOWN      MOCLDY    50  44  80 S7        29.90F
ALTOONA        PTCLDY    35  32  88 CALM      29.93F
STATE COLLEGE  PTCLDY    32  30  94 CALM      29.96F FOG
WILLIAMSPORT   CLEAR     31  29  92 CALM      30.01F FOG
SELINSGROVE    PTCLDY    31  29  92 CALM      30.01F FOG
FT INDIANTOWN  PTCLDY    31  30  97 E2        30.01F FOG
CAPITAL CITY   PTCLDY    32  31  96 CALM      30.01F FOG
HARRISBURG     MOCLDY    33  31  92 NW3       30.00F FOG
YORK           PTCLDY    30  29  96 CALM      29.99F FOG
$$

PAZ038>040-043-044-047-048-054-055-060>062-067>071-261000-
EASTERN PENNSYLVANIA

CITY           SKY/WX    TMP DP  RH WIND       PRES   REMARKS
SCRANTON       CLEAR     37  33  85 CALM      29.98F FOG
MOUNT POCONO   CLEAR     39  36  89 W8        29.96F
ALLENTOWN      PTCLDY    34  33  96 CALM      30.02F FOG
QUAKERTOWN*    MOSUNNY   36  36 100 CALM      30.01F
READING        PTCLDY    33  31  92 N5        30.01F FOG
LANCASTER      CLEAR     36  35  96 CALM      30.01F FOG
COATESVILLE    MOSUNNY   37  37 100 CALM      30.01F FOG
POTTSTOWN      MOCLDY    36  36 100 CALM      30.03F FOG
BLUE BELL      CLOUDY    37  37 100 CALM      30.00F
DOYLESTOWN     CLOUDY    36  36 100 CALM      30.01F FOG
WILLOW GROVE   NOT AVBL
NORTH PHILA    CLOUDY    41  36  82 CALM      30.04F HAZE
PHILADELPHIA   PTCLDY    41  39  93 S5        30.04F FOG
$$


USA.gov is the U.S. government's official web portal to all federal, state and local government web resources and services.